Weather Service Report


090 
ASUS44 KLIX 281810
RWRLIX
NEW ORLEANS REGIONAL WEATHER ROUNDUP
NATIONAL WEATHER SERVICE NEW ORLEANS LA
100 PM CDT THU AUG 28 2014

NOTE: "FAIR" INDICATES FEW OR NO CLOUDS BELOW 12,000 FEET WITH NO
      SIGNIFICANT WEATHER AND/OR OBSTRUCTIONS TO VISIBILITY.
      SKY/WX - SKY CONDITION AND SIGNIFICANT WEATHER.
      TMP - AIR TEMPERATURE.     DP    - DEWPOINT TEMPERATURE.
      RH  - RELATIVE HUMIDITY.   PRES  - PRESSURE.
      HI  - HEAT INDEX.          WCI   - WIND CHILL INDEX.

*  THESE STATIONS ARE NOT NWS OR FAA STATIONS AND ARE NOT UNDER
   NWS QUALITY CONTROL. 

LAZ038-040-048-061>063-065>067-069-281900-
SOUTHEAST LOUISIANA
  
CITY           SKY/WX    TMP DP  RH WIND       PRES   REMARKS
N.O. AUDUBON   NOT AVBL                                               
N.O. INTL ARPT CLOUDY    89  70  53 S7        29.99F                  
6HR MIN TEMP:  80; 6HR MAX TEMP:  90;                                

N.O. LAKEFRONT CLOUDY    87  74  64 E10       30.00F HX  95           
6HR MIN TEMP:  82; 6HR MAX TEMP:  87;                                

N.O. DOWNTOWN* MOCLDY    90  70  51 S3        30.00F HX  95           
6HR MIN TEMP:  81; 6HR MAX TEMP:  90;                                

SLIDELL        CLOUDY    85  71  63 S5        30.00F                  
6HR MIN TEMP:  75; 6HR MAX TEMP:  88; 6HR PCP: TRACE;                

BATON ROUGE    LGT RAIN  86  72  62 E7        29.99F                  
6HR MIN TEMP:  75; 6HR MAX TEMP:  91; 6HR PCP: TRACE;                

BOOTHVILLE     MOSUNNY   89  74  60 E10       30.00F HX  98           
6HR MIN TEMP:  82; 6HR MAX TEMP:  89;                                

BELLE CHASSE   CLOUDY    89  71  55 E12       29.99F HX  95           
6HR MIN TEMP:  76; 6HR MAX TEMP:  89;                                

BOGALUSA*        N/A     90  67  46 S6        30.02F                  
6HR MIN TEMP:  74; 6HR MAX TEMP:  92;                                

GALLIANO*      NOT AVBL                                               
NEW ROADS*       N/A     88  74  63 SE5       29.99F HX  97           
6HR MIN TEMP:  74; 6HR MAX TEMP:  88;                                

GONZALES*        N/A     90  74  58 E7        29.98F HX  98           
6HR MIN TEMP:  75; 6HR MAX TEMP:  90;                                

HAMMOND*       PTSUNNY   91  68  46 SE8       30.02F HX  95           
HOUMA*         MOSUNNY   91  70  49 E6        29.99F HX  97           
PORT FOURCHON* CLEAR     88  73  62 SE10      30.00F HX  96           

$$

MSZ070-080>082-281900-
SOUTHERN MISSISSIPPI
  
CITY           SKY/WX    TMP DP  RH WIND       PRES   REMARKS
MCCOMB         CLOUDY    87  67  51 SE5       30.02F                  
6HR MIN TEMP:  73; 6HR MAX TEMP:  90;                                

GULFPORT       PTSUNNY   89  72  56 S9        30.00F HX  96           
6HR MIN TEMP:  78; 6HR MAX TEMP:  90;                                

BILOXI         PTSUNNY   89  72  56 SE7       30.01S HX  95           
6HR MIN TEMP:  77; 6HR MAX TEMP:  92;                                

PASCAGOULA     CLOUDY    86  72  62 S3        30.00F                  
6HR MIN TEMP:  75; 6HR MAX TEMP:  90;                                

STENNIS ARPT*  MOSUNNY  N/A N/A N/A S7        30.01F                  

$$

COASTAL OBSERVATIONS
LAKE AND NEARSHORE STATIONS
  
STATION/POSITION TIME  TEMP    WIND        PRES    WAVE
                       AIR SEA DIR/SP/G            HT/PER
                 (UTC) (F)     (DEG/KT/KT) (MB)    (FT/S)
PASCAGOULA       1800   83     160/  6/  7 1015.8
WAVELAND YACHT   1800   84     150/  9/ 10 1015.5
GRAND ISLE       1800   88 84  100/  6/ 12 1016.1
SOUTHWEST PASS   1800   92 89   80/ 13/ 15 1015.7
NEW CANAL        1800   89 84   80/  3/  6 1016.2
SHELL BEACH      1800   86 81  100/  9/ 12 1015.7

OFFSHORE STATIONS
  
STATION/POSITION TIME  TEMP    WIND        PRES    WAVE
                       AIR SEA DIR/SP/G            HT/PER
                 (UTC) (F)     (DEG/KT/KT) (MB)    (FT/S)
64 S DAUPHIN ISL 1738   85 86   60/ 12/ 16 1016.1

$$



092 
ASUS44 KLIX 281810
RWRLA 
LOUISIANA WEATHER ROUNDUP
NATIONAL WEATHER SERVICE NEW ORLEANS LA
100 PM CDT THU AUG 28 2014

NOTE: "FAIR" INDICATES FEW OR NO CLOUDS BELOW 12,000 FEET WITH NO
      SIGNIFICANT WEATHER AND/OR OBSTRUCTIONS TO VISIBILITY.
      SKY/WX - SKY CONDITION AND SIGNIFICANT WEATHER.
      TMP - AIR TEMPERATURE.    DP   - DEWPOINT TEMPERATURE.
      RH  - RELATIVE HUMIDITY.  PRES - PRESSURE.
      HX  - HEAT INDEX.         WCI  - WIND CHILL INDEX.

*  THESE STATIONS ARE NOT NWS OR FAA STATIONS AND ARE NOT UNDER
   NWS QUALITY CONTROL.

LAZ040-048-061>063-065-066-069-281900-
SOUTHEAST LOUISIANA
  
CITY           SKY/WX    TMP DP  RH WIND       PRES   REMARKS
N.O. AUDUBON   NOT AVBL                                               
N.O. INTL ARPT CLOUDY    89  70  53 S7        29.99F                  
6HR MIN TEMP:  80; 6HR MAX TEMP:  90;                                

N.O. LAKEFRONT CLOUDY    87  74  64 E10       30.00F HX  95           
6HR MIN TEMP:  82; 6HR MAX TEMP:  87;                                

N.O. DOWNTOWN* MOCLDY    90  70  51 S3        30.00F HX  95           
6HR MIN TEMP:  81; 6HR MAX TEMP:  90;                                

SLIDELL        CLOUDY    85  71  63 S5        30.00F                  
6HR MIN TEMP:  75; 6HR MAX TEMP:  88; 6HR PCP: TRACE;                

BATON ROUGE    LGT RAIN  86  72  62 E7        29.99F                  
6HR MIN TEMP:  75; 6HR MAX TEMP:  91; 6HR PCP: TRACE;                

BOOTHVILLE     MOSUNNY   89  74  60 E10       30.00F HX  98           
6HR MIN TEMP:  82; 6HR MAX TEMP:  89;                                

BELLE CHASSE   CLOUDY    89  71  55 E12       29.99F HX  95           
6HR MIN TEMP:  76; 6HR MAX TEMP:  89;                                

BOGALUSA*      FAIR      90  67  46 S6        30.02F                  
6HR MIN TEMP:  74; 6HR MAX TEMP:  92;                                

GALLIANO*      NOT AVBL                                               
NEW ROADS*     FAIR      88  74  63 SE5       29.99F HX  97           
6HR MIN TEMP:  74; 6HR MAX TEMP:  88;                                

GONZALES*      FAIR      90  74  58 E7        29.98F HX  98           
6HR MIN TEMP:  75; 6HR MAX TEMP:  90;                                

HAMMOND*       PTSUNNY   91  68  46 SE8       30.02F HX  95           
HOUMA*         MOSUNNY   91  70  49 E6        29.99F HX  97           
PORT FOURCHON* CLEAR     88  73  62 SE10      30.00F HX  96           

$$

LAZ041-044-053-054-281900-
SOUTHWEST LOUISIANA
  
CITY           SKY/WX    TMP DP  RH WIND       PRES   REMARKS
LAKE CHARLES   CLOUDY    83  73  72 SE12      29.98F                  
6HR MIN TEMP:  76; 6HR MAX TEMP:  85; 6HR PCP: TRACE;                

LAFAYETTE      PTSUNNY   89  71  55 VRB6      29.98F HX  95           
PATTERSON      CLOUDY    88  75  66 E7        30.01F HX  97           
6HR MIN TEMP:  75; 6HR MAX TEMP:  88;                                

SALT POINT       N/A     88  77  69 E6        29.97F HX 100           
6HR MIN TEMP:  80; 6HR MAX TEMP:  88;                                

NEW IBERIA     CLOUDY    90  74  59 SE9       29.99F HX  99           
6HR MIN TEMP:  77; 6HR MAX TEMP:  90;                                

CHENAULT AIRPK PTSUNNY   81  73  78 SE8       29.99F                  

$$

LAZ027-028-281900-
CENTRAL LOUISIANA
  
CITY           SKY/WX    TMP DP  RH WIND       PRES   REMARKS
FORT POLK      MOSUNNY   91  70  49 E9        29.97F HX  96           
6HR MIN TEMP:  73; 6HR MAX TEMP:  91;                                

ALEXANDRIA INT MOSUNNY   92  71  50 S8        29.96F HX  98           
6HR MIN TEMP:  73; 6HR MAX TEMP:  92;                                

ALEXANDRIA     MOSUNNY   92  73  53 VRB6      29.98F HX 100           
6HR MIN TEMP:  72; 6HR MAX TEMP:  93;                                


$$

LAZ001-002-281900-
NORTHWEST LOUISIANA
  
CITY           SKY/WX    TMP DP  RH WIND       PRES   REMARKS
SHREVEPORT     PTSUNNY   90  70  51 E5        29.96F HX  95           
6HR MIN TEMP:  73; 6HR MAX TEMP:  94;                                

BARKSDALE AFB  MOSUNNY   92  71  49 S7        29.97F HX  99           
6HR MIN TEMP:  71; 6HR MAX TEMP:  93;                                

DTN SHREVEPORT MOSUNNY   91  71  51 S6        29.97F HX  97           
6HR MIN TEMP:  71; 6HR MAX TEMP:  93;                                


$$

LAZ014-016-281900-
NORTHEAST LOUISIANA
  
CITY           SKY/WX    TMP DP  RH WIND       PRES   REMARKS
MONROE         PTSUNNY   88  72  58 SW7       29.99F                  
6HR MIN TEMP:  70; 6HR MAX TEMP:  92;                                

TALLULAH       PTSUNNY   89  68  49 SE3       30.00F                  
6HR MIN TEMP:  69; 6HR MAX TEMP:  91;                                


$$


Return to Home page


Western Regional Climate Center, wrcc@dri.edu